ONEWEB-0152, 48043

Orbit data source: Space-Track

ONEWEB-0152, 48043 is a payload satellite owned by One Web (NAA) (UK) in LEO that was launched on Thu, 25 Mar 2021 UTC via a SOYUZ-2-1B launch vehicle from the Vostochny Cosmodrome (VOSTO). Payload-class satellites include a variety of spacecraft equipped with specific instruments for various scientific and technological missions. These include communications satellites like Starlink; space stations such as the ISS; scientific satellites like the Hubble; Earth observation satellites from companies like Planet Labs, Umbra, and HawkEye 360; GPS; miniature CubeSats for education and research; and military/defense satellites.

Loading next visibility...
Identifier
48043, 2021-025B
Orbit
LEO
Country
Flag of UKUK
Related business
Manufacturer
One Web
Mission
Operational Commercial Communications
Bus & Motor
ARROW, Unknown motor
Mass
148 kg wet, ~140 kg dry
Launch date (UTC)
2021-03-25 (5 years ago)
Launch vehicle
SOYUZ-2-1B
Launch site
Vostochny Cosmodrome (VOSTO)
Object type
Payload
Rocket body
Debris
Shape & HBR
Trap Box + 2 Pan, 6.7 m
Radar Cross Section
3.464 m², Large (>1 m²)

Expand to show TLE details & history
Last TLE update: 2 days ago

TLE from 2 days ago
0 ONEWEB-0152
1 48043U 21025B   26171.38871877  .00000214  00000-0  55184-3 0  9998
2 48043  87.8964 319.5824 0001730  94.9857 265.1469 13.13470690253971
Epoch: 2026-06-20T09:19Z
TLE epoch observation values (Epoch: 2026-06-20T09:19:45.301Z)
Latitude
-0.0001°
Longitude
-88.96041°
Altitude
1,212.766 km
Speed
7.248 km/s
True Right ascension
21h 18m 19s
True Declination
0° 00' 00"
Sunlit
Object was in full shadow at epoch
Visualization orbit readout
Latitude
Unknown
Longitude
Unknown
Altitude
Unknown
Speed
Unknown
Apparent Right ascension
Unknown
Apparent Declination
Unknown
Sunlit
N/A
Visualization observer readout
Local Sidereal Time
23:08:09
Azimuth
Unknown
Elevation
Unknown
Doppler factor
Unknown
Orbital elements
Apogee altitude
1,208.19 km
Perigee altitude
1,205.566 km
Semi-major axis
7,585.015 km
Eccentricity
0.00017
Inclination
87.8964°
RAAN
319.5824°
Arg. of periapsis
94.9857°
True anomaly
265.12715°
Mean anomaly
265.1469°
Eccentric anomaly
265.13702°
Mean motion
3.28555 °/min
Orbital period
109.57 mins
BSTAR
0.00055184
Loading maneuver chart data...
Computing Atmospheric mass density...
Loading historical data...
Loading historical data...
Loading historical data...
Loading historical data...
Loading historical data...
Loading historical data...
Loading historical data...

Documentation

Showing up to 5 results
|